Last 24 Hours

Squaw-Siberia 8700'

Hourly Data | America/Los_Angeles
as of 5/24/19 2:26 PM PDT
Date & Time Temp (°F) RH (%) Dew Pt (°F) Wet Bulb (°F) Wind Dir (°) Wind Spd (mph) Wind Gust (mph) WindChill (°F) Daily Min Temp (°F) Daily Max Temp (°F)
5/24/19 - 1400 41.4 75 34.1 37.8 WNW | 299 3.7 15.6 39.7 31.5 46.4
5/24/19 - 1300 42.4 66 31.7 37.2 WNW | 298 2.9 12.0 39.7 31.5 46.4
5/24/19 - 1200 40.5 68 30.7 35.9 ENE | 65 1.1 8.4 40.3 31.5 45.1
5/24/19 - 1100 39.1 73 31.3 35.4 ENE | 61 6.9 13.0 32.5 31.5 39.1
5/24/19 - 1000 36.5 90 33.8 35.2 NE | 53 13.1 19.3 26.7 31.5 36.6
5/24/19 - 0900 34.2 97 33.4 33.8 NE | 49 18.1 22.1 22.7 31.5 34.7
5/24/19 - 0800 33.0 100 32.9 32.9 NE | 50 12.9 19.5 23.4 31.5 33.6
5/24/19 - 0700 32.7 100 32.6 32.7 NE | 38 12.0 16.4 23.7 31.5 33.6
5/24/19 - 0600 32.3 98 31.7 32.0 NE | 35 9.5 15.1 25.0 31.5 33.6
5/24/19 - 0500 33.0 94 31.6 32.4 NE | 39 9.3 15.4 25.2 31.5 33.6
5/24/19 - 0400 32.8 94 31.2 32.0 NNE | 32 12.3 19.4 24.1 31.5 33.6
5/24/19 - 0300 32.5 93 30.7 31.7 NE | 37 7.6 14.5 26.5 31.5 32.9
5/24/19 - 0200 31.9 97 31.2 31.6 NE | 42 11.4 18.1 23.4 31.5 32.6
5/24/19 - 0100 32.3 93 30.5 31.5 NE | 54 9.3 14.1 24.3 31.5 32.6
5/24/19 - 0000 32.0 100 31.9 32.0 ENE | 58 8.2 12.5 24.8 30.0 33.9
5/23/19 - 2300 31.9 100 31.9 31.9 NE | 54 11.6 14.6 22.9 30.0 33.9
5/23/19 - 2200 32.2 100 32.2 32.2 NE | 47 15.7 24.3 21.6 30.0 33.9
5/23/19 - 2100 32.0 100 32.0 32.0 NE | 45 15.8 23.2 21.5 30.0 33.9
5/23/19 - 2000 32.2 100 32.2 32.2 NE | 47 8.3 15.8 25.2 30.0 33.9
5/23/19 - 1900 32.4 100 32.4 32.4 NE | 50 8.6 20.2 26.0 30.0 33.9
5/23/19 - 1800 32.5 100 32.5 32.5 NE | 36 8.3 21.5 26.3 30.0 33.9
5/23/19 - 1700 32.1 100 32.1 32.1 NE | 44 21.0 27.8 19.9 30.0 33.9
5/23/19 - 1600 32.6 100 32.6 32.6 NE | 45 13.1 24.2 23.8 30.0 33.9
5/23/19 - 1500 33.1 100 33.1 33.1 NE | 44 11.3 17.8 24.0 30.0 33.1
5/23/19 - 1400 32.2 100 32.2 32.2 NE | 46 14.7 20.3 22.1 30.0 32.5
Max 42.4 100 34.1 37.8 - 21.0 27.8 40.3 31.5 46.4
Avg 34.0 93 32.1 33.1 - 10.7 17.8 26.2 - -
Min 31.9 66 30.5 31.5 - 1.1 8.4 19.9 30.0 32.5